Location: Ladysmith
(45.4630°N, 91.1040°W)
Time: 07:02:05
(UTC-06:00)

Amateur Radio Satellites - All Passes

Search period start: 17 January 2017 06:32
Search period end: 18 January 2017 06:32
Location: Ladysmith, 45.4630°N, 91.1040°W

Satellite Date Start Highest point End Downlink Frequencies (MHz)
Time Altitude Azimuth
CUTE-I 17 Jan 06:33:12 06:38:34 78° 104° (ESE) 06:43:54 437.470
PHONESAT 2.4 17 Jan 06:33:42 06:35:31 20° 189° (S) 06:37:20 2401.200-2431.200
ISS 17 Jan 06:37:57 06:40:24 20° 223° (SW) 06:42:51 145.825
GOMX 1 17 Jan 06:44:14 06:48:16 31° 293° (WNW) 06:52:06 467.674
NOAA 18 17 Jan 06:48:37 06:54:02 58° 102° (ESE) 06:59:23 137.9125
HORYU 2 17 Jan 06:57:39 07:00:59 21° 297° (WNW) 07:04:20 437.375
CUTE 1.7 + AOD 2 17 Jan 07:12:37 07:16:27 30° 96° (E) 07:20:15 437.475
Cubesat XI-IV 17 Jan 07:15:22 07:20:29 48° 291° (WNW) 07:25:34 437.490
STRAND 1 17 Jan 07:16:41 07:21:23 37° 263° (W) 07:26:08 437.568
O/OREOS (USA 219) 17 Jan 07:30:37 07:35:05 68° 296° (WNW) 07:39:34 437.305
PRISM 17 Jan 07:32:46 07:35:58 22° 65° (ENE) 07:39:12 437.425
NOAA 15 17 Jan 07:38:21 07:42:56 30° 296° (WNW) 07:47:30 137.62
HO-68 17 Jan 07:39:39 07:46:45 58° 102° (ESE) 07:53:46 435.675
CANX-2 17 Jan 07:40:43 07:45:03 71° 102° (ESE) 07:49:20 2200.000
DOVE 4 17 Jan 07:43:06 07:46:09 19° 296° (WNW) 07:49:09 437.250
CUBEBUG 2 17 Jan 07:44:02 07:47:45 28° 95° (E) 07:51:32 437.445
Cosmos 2499 17 Jan 07:50:44 07:57:42 53° 269° (W) 08:04:28 435.465 / 435.565
Oscar 11 17 Jan 07:56:23 07:58:25 13° 89° (E) 08:00:26 145.826/435.025
SEEDS 17 Jan 07:59:46 08:04:02 66° 101° (ESE) 08:08:15 437.485
CINEMA 3 17 Jan 08:00:49 08:04:49 47° 288° (WNW) 08:08:52 145.822/145.860
SO-50 17 Jan 08:11:33 08:15:37 29° 115° (ESE) 08:19:39 436.795
COMPASS 1 17 Jan 08:12:26 08:16:38 60° 101° (E) 08:20:47 437.405
PCSat 17 Jan 08:13:03 08:15:57 14° 30° (NNE) 08:18:50 145.827
CUTE-I 17 Jan 08:14:37 08:17:58 17° 302° (WNW) 08:21:20 437.470
UWE-3 17 Jan 08:20:07 08:24:14 43° 99° (E) 08:28:27 435.000/436.395/437.385
GONETS M04 17 Jan 08:20:21 08:28:41 49° 272° (W) 08:37:02
RS-15 17 Jan 08:23:27 08:35:53 71° 49° (NE) 08:47:53 29.354- 29.394
UNISAT 6 17 Jan 08:23:59 08:27:19 23° 65° (ENE) 08:30:40 437.425
FUNcube-1 17 Jan 08:26:40 08:30:28 29° 96° (E) 08:34:19 145.935
AAUSAT CUBESAT 2 17 Jan 08:27:35 08:31:47 68° 101° (ESE) 08:35:56 437.432
NOAA 18 17 Jan 08:30:05 08:34:16 23° 300° (WNW) 08:38:27 137.9125
TIGRISAT 17 Jan 08:38:07 08:41:47 29° 67° (ENE) 08:45:27 435.000
DELFI C3 17 Jan 08:43:50 08:45:47 13° 90° (E) 08:47:45 145.870
ZACube-1 17 Jan 08:47:16 08:51:30 51° 100° (E) 08:55:49 437.345
CUTE 1.7 + AOD 2 17 Jan 08:48:33 08:52:12 27° 293° (WNW) 08:55:49 437.475
ANTELSAT 17 Jan 08:51:58 08:55:59 42° 71° (ENE) 09:00:01 437.575/2403.000
JAS-2 17 Jan 08:52:12 08:56:00 20° 57° (ENE) 09:00:01 435.910
PRISM 17 Jan 09:07:10 09:11:03 37° 262° (W) 09:14:58 437.425
O/OREOS (USA 219) 17 Jan 09:14:25 09:15:23 11° 317° (NW) 09:16:21 437.305
CANX-2 17 Jan 09:18:14 09:20:20 13° 299° (WNW) 09:22:26 2200.000
CUBEBUG 2 17 Jan 09:20:39 09:24:20 29° 292° (WNW) 09:28:07 437.445
HO-68 17 Jan 09:27:54 09:34:06 33° 301° (WNW) 09:40:18 435.675
POPSAT HIP 1 17 Jan 09:29:29 09:31:06 12° 60° (ENE) 09:32:44 437.405
Oscar 11 17 Jan 09:30:39 09:35:00 66° 286° (WNW) 09:39:19 145.826/435.025
HUMSAT D 17 Jan 09:31:12 09:34:47 25° 94° (E) 09:38:22 437.325/437.525
SEEDS 17 Jan 09:36:59 09:39:12 14° 299° (WNW) 09:41:25 437.485
DUCHIFAT 1 17 Jan 09:44:09 09:46:28 15° 62° (ENE) 09:48:48 145.980
NANOSAT C BR1 17 Jan 09:47:15 09:49:59 17° 63° (ENE) 09:52:44 145.865
COMPASS 1 17 Jan 09:49:19 09:51:41 15° 298° (WNW) 09:54:04 437.405
SO-50 17 Jan 09:51:29 09:55:57 42° 313° (NW) 10:00:23 436.795
PCSat 17 Jan 09:55:15 10:00:36 54° 53° (NE) 10:05:55 145.827
UWE-3 17 Jan 09:57:16 10:00:26 20° 295° (WNW) 10:03:40 435.000/436.395/437.385
UNISAT 6 17 Jan 09:59:54 10:03:51 36° 263° (W) 10:07:49 437.425
FUNcube-1 17 Jan 10:02:55 10:06:40 29° 292° (WNW) 10:10:28 145.935
AAUSAT CUBESAT 2 17 Jan 10:04:42 10:06:42 13° 299° (WNW) 10:08:43 437.432
TIGRISAT 17 Jan 10:14:47 10:18:27 28° 265° (W) 10:22:07 435.000
DELFI C3 17 Jan 10:17:01 10:20:57 55° 287° (WNW) 10:24:51 145.870
ZACube-1 17 Jan 10:24:32 10:27:26 18° 296° (WNW) 10:30:22 437.345
ANTELSAT 17 Jan 10:29:50 10:32:54 19° 268° (W) 10:35:58 437.575/2403.000
BY70-1 17 Jan 10:31:36 10:34:34 26° 96° (E) 10:37:24 436.1900
BUGSAT 1 17 Jan 10:33:05 10:35:48 18° 64° (ENE) 10:38:31 437.445
JAS-2 17 Jan 10:35:13 10:40:27 66° 258° (WSW) 10:46:11 435.910
QB50P1 17 Jan 10:35:37 10:39:44 56° 73° (ENE) 10:43:51 145.935-145.965
RS-15 17 Jan 10:36:42 10:47:40 41° 253° (WSW) 10:58:18 29.354- 29.394
POLYITAN 1 17 Jan 10:38:34 10:42:43 61° 73° (ENE) 10:46:52 437.675
QB50P2 17 Jan 10:39:38 10:43:49 67° 74° (ENE) 10:48:00 145.880/145.840
CUBEBUG 1 17 Jan 10:48:12 10:50:25 14° 90° (E) 10:52:37 437.445
AISAT 17 Jan 10:56:11 10:57:08 11° 88° (E) 10:58:04 437.250
ESTCUBE 1 17 Jan 11:00:27 11:04:31 31° 96° (E) 11:08:32 437.505/2401.250
POPSAT HIP 1 17 Jan 11:02:06 11:06:17 77° 256° (WSW) 11:10:30 437.405
HUMSAT D 17 Jan 11:06:36 11:10:25 32° 291° (WNW) 11:14:13 437.325/437.525
DUCHIFAT 1 17 Jan 11:17:34 11:21:42 60° 260° (W) 11:25:50 145.980
NANOSAT C BR1 17 Jan 11:21:17 11:25:21 49° 260° (W) 11:29:26 145.865
Gurwin Techsat 1B 17 Jan 11:26:36 11:29:09 14° 55° (NE) 11:31:41 435.225
VELOX 1 17 Jan 11:27:41 11:31:08 22° 94° (E) 11:34:34 145.980
SO-50 17 Jan 11:36:02 11:37:38 12° 335° (NNW) 11:39:15 436.795
Oscar 19 17 Jan 11:38:40 11:43:04 29° 64° (ENE) 11:47:29 437.125/150
PCSat 17 Jan 11:39:17 11:43:39 25° 252° (WSW) 11:48:00 145.827
BY70-1 17 Jan 12:02:12 12:04:49 20° 293° (WNW) 12:07:21 436.1900
50 SAT 17 Jan 12:03:24 12:06:46 37° 99° (E) 12:10:05 437.505
BUGSAT 1 17 Jan 12:06:56 12:10:51 45° 260° (W) 12:14:46 437.445
DX 1 17 Jan 12:11:20 12:15:11 30° 97° (E) 12:19:00 434.975-435.025
QB50P1 17 Jan 12:13:35 12:15:51 14° 270° (W) 12:18:07 145.935-145.965
CUSAT 1 17 Jan 12:15:27 12:19:26 14° 53° (NE) 12:23:27 437.405
POLYITAN 1 17 Jan 12:16:55 12:18:54 13° 270° (W) 12:20:53 437.675
UKube-1 17 Jan 12:17:41 12:21:19 26° 95° (E) 12:24:55 .
QB50P2 17 Jan 12:18:26 12:20:03 12° 271° (W) 12:21:41 145.880/145.840
SPROUT 17 Jan 12:22:24 12:26:37 62° 101° (E) 12:30:50 437.525
CUBEBUG 1 17 Jan 12:22:49 12:27:07 61° 287° (WNW) 12:31:22 437.445
AISAT 17 Jan 12:29:45 12:34:10 81° 287° (WNW) 12:38:32 437.250
TISAT 1 17 Jan 12:29:46 12:30:46 11° 89° (E) 12:31:46 437.305
Cosmos 2491 17 Jan 12:34:10 12:42:22 41° 70° (ENE) 12:50:32 435.465 / 435.565
ESTCUBE 1 17 Jan 12:37:19 12:41:15 29° 293° (WNW) 12:45:09 437.505/2401.250
YUBILEINY 17 Jan 12:48:10 12:53:31 18° 75° (ENE) 12:58:52 435.215
Gurwin Techsat 1B 17 Jan 13:02:57 13:08:16 82° 72° (ENE) 13:13:37 435.225
VELOX 1 17 Jan 13:03:38 13:07:43 39° 291° (WNW) 13:11:48 145.980
AO-7 17 Jan 13:14:34 13:21:49 35° 55° (NE) 13:29:06 29.400- 29.500
Oscar 19 17 Jan 13:17:18 13:22:12 42° 262° (W) 13:27:09 437.125/150
50 SAT 17 Jan 13:37:27 13:39:42 16° 295° (WNW) 13:41:55 437.505
DX 1 17 Jan 13:47:35 13:51:18 28° 294° (WNW) 13:54:59 434.975-435.025
ITAMSAT 1 17 Jan 13:52:20 13:57:19 51° 70° (ENE) 14:02:20 435.822/435.867
UKube-1 17 Jan 13:53:32 13:57:22 32° 293° (WNW) 14:01:11 .
AO-85 17 Jan 13:55:11 13:58:51 23° 114° (ESE) 14:02:20 145.980
CUSAT 1 17 Jan 13:55:19 14:03:06 57° 74° (ENE) 14:10:42 437.405
SPROUT 17 Jan 13:59:42 14:02:03 15° 299° (WNW) 14:04:26 437.525
TISAT 1 17 Jan 14:02:44 14:06:54 73° 286° (WNW) 14:11:03 437.305
ITUPSAT 1 17 Jan 14:03:53 14:07:45 24° 94° (E) 14:11:35 437.325
AISAT 17 Jan 14:09:31 14:09:51 10° 303° (WNW) 14:10:11 437.250
DANDE 17 Jan 14:10:43 14:17:09 32° 68° (ENE) 14:24:18 436.750
Cosmos 2504 17 Jan 14:14:11 14:21:43 34° 85° (E) 14:28:55 435.465 / 435.565
BRITE-PL 17 Jan 14:19:44 14:21:31 12° 54° (NE) 14:23:18 437.365/2234.400
AIST 1 17 Jan 14:29:58 14:34:21 81° 279° (W) 14:38:45
Cosmos 2491 17 Jan 14:31:03 14:39:22 50° 271° (W) 14:47:40 435.465 / 435.565
YUBILEINY 17 Jan 14:40:03 14:48:51 82° 96° (E) 14:57:44 435.215
BEESAT 17 Jan 14:40:18 14:45:00 53° 100° (E) 14:49:40 436.000
SWISSCUBE 17 Jan 14:41:32 14:46:18 61° 102° (ESE) 14:51:03 437.505
Gurwin Techsat 1B 17 Jan 14:46:09 14:48:52 14° 272° (W) 14:51:36 435.225
SO-50 17 Jan 15:01:11 15:03:06 12° 26° (NNE) 15:05:00 436.795
AO-7 17 Jan 15:05:50 15:14:07 65° 255° (WSW) 15:22:28 29.400- 29.500
MOZHAYETS 4 17 Jan 15:06:12 15:10:20 31° 96° (E) 15:14:28
ITAMSAT 1 17 Jan 15:33:06 15:37:04 22° 267° (W) 15:41:04 435.822/435.867
AO-85 17 Jan 15:34:32 15:39:03 49° 310° (NW) 15:43:15 145.980
CUSAT 1 17 Jan 15:37:43 15:44:44 36° 273° (W) 15:51:34 437.405
ITUPSAT 1 17 Jan 15:41:12 15:45:44 43° 291° (WNW) 15:50:15 437.325
NOAA 15 17 Jan 15:44:18 15:46:45 13° 55° (NE) 15:49:11 137.62
CUBESAT XI-V 17 Jan 15:44:19 15:46:28 13° 88° (E) 15:48:36 437.345
AUBIESAT-1 17 Jan 15:44:46 15:47:08 17° 99° (E) 15:49:26 437.475
DANDE 17 Jan 15:52:56 16:00:15 66° 264° (W) 16:08:29 436.750
BRITE-PL 17 Jan 15:53:19 15:58:55 63° 73° (ENE) 16:04:31 437.365/2234.400
O/OREOS (USA 219) 17 Jan 15:59:15 16:03:29 38° 59° (ENE) 16:07:42 437.305
Cosmos 2504 17 Jan 16:06:11 16:14:45 58° 284° (WNW) 16:22:51 435.465 / 435.565
KKS-1 17 Jan 16:10:17 16:14:32 44° 99° (E) 16:18:45 437.445
GOMX 1 17 Jan 16:15:06 16:20:13 44° 70° (ENE) 16:25:09 467.674
CUTE-I 17 Jan 16:18:52 16:23:01 24° 62° (ENE) 16:27:11 437.470
BEESAT 17 Jan 16:18:55 16:22:25 21° 298° (WNW) 16:25:55 436.000
HORYU 2 17 Jan 16:20:18 16:24:35 54° 71° (ENE) 16:28:54 437.375
SWISSCUBE 17 Jan 16:20:23 16:23:38 18° 299° (WNW) 16:26:53 437.505
HO-68 17 Jan 16:28:08 16:30:59 13° 44° (NE) 16:33:50 435.675
NOAA 18 17 Jan 16:38:27 16:42:35 22° 59° (ENE) 16:46:42 137.9125
M-CUBED/EXP-1 PRIME 17 Jan 16:38:45 16:42:13 72° 292° (WNW) 16:45:30 437.505
YUBILEINY 17 Jan 16:39:51 16:46:47 25° 299° (WNW) 16:53:46 435.215
SO-50 17 Jan 16:40:16 16:44:41 48° 48° (NE) 16:49:01 436.795
MOZHAYETS 4 17 Jan 16:43:23 16:47:26 31° 293° (WNW) 16:51:30
Cubesat XI-IV 17 Jan 16:59:44 17:04:51 50° 69° (ENE) 17:09:59 437.490
AO-7 17 Jan 17:05:16 17:08:30 13° 276° (W) 17:11:46 29.400- 29.500
BEESAT 3 17 Jan 17:09:32 17:13:22 59° 121° (ESE) 17:17:16 437.485
DOVE 4 17 Jan 17:11:14 17:16:12 59° 73° (ENE) 17:20:55 437.250
STARS 17 Jan 17:12:42 17:17:06 88° 275° (W) 17:21:28 437.465
LilacSat-2 17 Jan 17:14:20 17:18:03 67° 75° (ENE) 17:21:50 437.200
AUBIESAT-1 17 Jan 17:18:39 17:21:41 29° 297° (WNW) 17:24:36 437.475
AO-85 17 Jan 17:19:03 17:20:25 11° 331° (NNW) 17:21:46 145.980
CUBESAT XI-V 17 Jan 17:19:40 17:24:23 75° 286° (WNW) 17:29:03 437.345
NOAA 15 17 Jan 17:20:23 17:25:40 80° 73° (ENE) 17:31:01 137.62
CINEMA 3 17 Jan 17:28:22 17:31:42 21° 66° (ENE) 17:34:57 145.822/145.860
BRITE-PL 17 Jan 17:33:29 17:37:46 22° 270° (W) 17:42:03 437.365/2234.400
DANDE 17 Jan 17:38:17 17:41:55 14° 280° (W) 17:45:44 436.750
O/OREOS (USA 219) 17 Jan 17:39:04 17:42:41 24° 257° (WSW) 17:46:17 437.305
BEESAT 2 17 Jan 17:47:02 17:50:56 64° 122° (ESE) 17:54:55 435.950
KKS-1 17 Jan 17:47:30 17:50:49 21° 297° (WNW) 17:54:06 437.445
GOMX 1 17 Jan 17:53:45 17:58:23 28° 266° (W) 18:02:53 467.674
CUTE-I 17 Jan 17:57:33 18:02:44 53° 260° (W) 18:07:56 437.470
HORYU 2 17 Jan 17:58:43 18:01:28 16° 269° (W) 18:04:14 437.375
Cosmos 2504 17 Jan 18:06:32 18:10:05 13° 307° (NW) 18:13:34 435.465 / 435.565
CUTE 1.7 + AOD 2 17 Jan 18:07:19 18:10:58 29° 68° (ENE) 18:14:39 437.475
HO-68 17 Jan 18:10:13 18:17:09 54° 66° (ENE) 18:24:06 435.675
NOAA 18 17 Jan 18:17:21 18:22:48 62° 258° (WSW) 18:28:16 137.9125
SO-50 17 Jan 18:21:19 18:24:50 23° 247° (WSW) 18:28:19 436.795
CANX-2 17 Jan 18:35:11 18:39:23 65° 74° (ENE) 18:43:38 2200.000
Cosmos 2499 17 Jan 18:37:38 18:44:07 25° 82° (E) 18:50:16 435.465 / 435.565
Cubesat XI-IV 17 Jan 18:40:58 18:45:12 24° 267° (W) 18:49:26 437.490
CUBEBUG 2 17 Jan 18:44:25 18:48:02 30° 68° (ENE) 18:51:40 437.445
BEESAT 3 17 Jan 18:48:27 18:51:20 19° 321° (NW) 18:54:15 437.485
DOVE 4 17 Jan 18:50:46 18:54:11 18° 269° (W) 18:57:30 437.250
STARS 17 Jan 18:51:35 18:52:44 11° 303° (WNW) 18:53:54 437.465
SEEDS 17 Jan 18:53:09 18:57:16 59° 74° (ENE) 19:01:28 437.485
Oscar 11 17 Jan 18:53:30 18:55:48 14° 61° (ENE) 18:58:06 145.826/435.025
CUBESAT XI-V 17 Jan 19:00:10 19:00:54 10° 304° (NW) 19:01:39 437.345
NOAA 15 17 Jan 19:03:14 19:06:04 15° 271° (W) 19:08:57 137.62
CINEMA 3 17 Jan 19:04:22 19:08:37 41° 262° (W) 19:12:43 145.822/145.860
COMPASS 1 17 Jan 19:04:49 19:08:53 52° 72° (ENE) 19:13:00 437.405
AIST 2 17 Jan 19:18:29 19:20:32 14° 109° (ESE) 19:22:37 435.215
UWE-3 17 Jan 19:19:14 19:23:10 43° 71° (ENE) 19:27:07 435.000/436.395/437.385
AAUSAT CUBESAT 2 17 Jan 19:19:23 19:23:29 58° 74° (ENE) 19:27:37 437.432
STRAND 1 17 Jan 19:24:16 19:29:23 63° 102° (ESE) 19:34:28 437.568
FUNcube-1 17 Jan 19:24:28 19:28:00 28° 68° (ENE) 19:31:33 145.935
BEESAT 2 17 Jan 19:26:15 19:29:07 19° 322° (NW) 19:32:01 435.950
GONETS M04 17 Jan 19:27:29 19:35:30 43° 87° (E) 19:43:34
DELFI C3 17 Jan 19:32:27 19:33:52 12° 60° (ENE) 19:35:16 145.870
CUTE 1.7 + AOD 2 17 Jan 19:43:06 19:46:46 28° 265° (W) 19:50:28 437.475
ZACube-1 17 Jan 19:45:08 19:49:07 50° 72° (ENE) 19:53:09 437.345
HO-68 17 Jan 19:58:45 20:05:07 34° 265° (W) 20:11:32 435.675
CANX-2 17 Jan 20:13:47 20:15:41 13° 271° (W) 20:17:36 2200.000
CUBEBUG 2 17 Jan 20:21:11 20:24:40 26° 265° (W) 20:28:10 437.445
HUMSAT D 17 Jan 20:24:43 20:27:58 23° 66° (ENE) 20:31:15 437.325/437.525
Oscar 11 17 Jan 20:27:07 20:31:24 67° 259° (WSW) 20:35:44 145.826/435.025
Cosmos 2499 17 Jan 20:28:04 20:36:34 73° 281° (W) 20:44:29 435.465 / 435.565
SEEDS 17 Jan 20:31:10 20:33:22 14° 271° (W) 20:35:34 437.485
COMPASS 1 17 Jan 20:42:16 20:44:45 15° 270° (W) 20:47:15 437.405
PRISM 17 Jan 20:46:29 20:49:51 24° 95° (E) 20:53:11 437.425
AIST 2 17 Jan 20:54:20 20:58:27 69° 307° (NW) 21:02:39 435.215
UWE-3 17 Jan 20:57:06 20:59:52 17° 268° (W) 21:02:39 435.000/436.395/437.385
AAUSAT CUBESAT 2 17 Jan 20:57:11 20:59:20 14° 271° (W) 21:01:28 437.432
FUNcube-1 17 Jan 21:00:42 21:04:13 27° 265° (W) 21:07:46 145.935
DELFI C3 17 Jan 21:04:05 21:08:05 74° 257° (WSW) 21:12:07 145.870
STRAND 1 17 Jan 21:04:27 21:08:05 20° 300° (WNW) 21:11:44 437.568
ZACube-1 17 Jan 21:23:18 21:25:44 15° 270° (W) 21:28:10 437.345
GONETS M04 17 Jan 21:23:59 21:32:15 46° 288° (WNW) 21:40:38
JAS-2 17 Jan 21:41:21 21:46:07 19° 88° (E) 21:51:05 435.910
CUBEBUG 1 17 Jan 21:46:07 21:48:55 17° 62° (ENE) 21:51:43 437.445
UNISAT 6 17 Jan 21:48:39 21:52:44 36° 97° (E) 21:56:53 437.425
AISAT 17 Jan 21:54:52 21:57:17 14° 60° (ENE) 21:59:40 437.250
HUMSAT D 17 Jan 21:59:42 22:03:24 33° 264° (W) 22:07:11 437.325/437.525
ESTCUBE 1 17 Jan 22:01:49 22:05:59 37° 69° (ENE) 22:10:11 437.505/2401.250
TIGRISAT 17 Jan 22:02:52 22:07:07 47° 99° (E) 22:11:26 435.000
ANTELSAT 17 Jan 22:17:14 22:21:38 72° 102° (ESE) 22:26:07 437.575/2403.000
BY70-1 17 Jan 22:18:26 22:21:21 65° 259° (WSW) 22:24:33 436.1900
PRISM 17 Jan 22:21:29 22:25:10 32° 292° (WNW) 22:28:49 437.425
AO-85 17 Jan 22:23:44 22:27:22 33° 46° (NE) 22:30:55 145.980
Cosmos 2499 17 Jan 22:26:17 22:31:07 16° 302° (WNW) 22:35:47 435.465 / 435.565
VELOX 1 17 Jan 22:26:50 22:30:34 27° 66° (ENE) 22:34:18 145.980
AIST 2 17 Jan 22:35:34 22:37:43 14° 328° (NNW) 22:39:54 435.215
50 SAT 17 Jan 22:40:25 22:43:16 23° 67° (ENE) 22:46:08 437.505
POPSAT HIP 1 17 Jan 22:45:52 22:48:13 15° 91° (E) 22:50:35 437.405
RS-15 17 Jan 22:50:31 23:00:32 34° 104° (ESE) 23:10:50 29.354- 29.394
YUBILEINY 17 Jan 22:55:51 22:56:29 10° 46° (NE) 22:57:07 435.215
DUCHIFAT 1 17 Jan 23:00:07 23:03:00 18° 92° (E) 23:05:52 145.980
NANOSAT C BR1 17 Jan 23:03:45 23:07:00 21° 93° (E) 23:10:13 145.865
DX 1 17 Jan 23:08:41 23:12:40 35° 68° (ENE) 23:16:39 434.975-435.025
UKube-1 17 Jan 23:14:04 23:17:50 30° 67° (ENE) 23:21:37 .
SPROUT 17 Jan 23:17:33 23:21:45 61° 73° (ENE) 23:25:57 437.525
ISS 17 Jan 23:18:29 23:21:30 36° 142° (SE) 23:24:31 145.825
CUBEBUG 1 17 Jan 23:20:25 23:24:46 57° 259° (W) 23:29:08 437.445
TISAT 1 17 Jan 23:23:25 23:25:06 12° 60° (ENE) 23:26:47 437.305
JAS-2 17 Jan 23:24:49 23:31:49 88° 109° (ESE) 23:39:31 435.910
UNISAT 6 17 Jan 23:25:44 23:29:17 25° 294° (WNW) 23:32:53 437.425
AISAT 17 Jan 23:28:44 23:33:11 70° 258° (WSW) 23:37:38 437.250
ESTCUBE 1 17 Jan 23:39:12 23:42:54 24° 266° (W) 23:46:37 437.505/2401.250
TIGRISAT 17 Jan 23:40:22 23:43:30 20° 296° (WNW) 23:46:41 435.000
BUGSAT 1 17 Jan 23:46:50 23:49:50 20° 94° (E) 23:52:50 437.445
BEESAT 3 17 Jan 23:48:05 23:50:01 13° 33° (NNE) 23:51:57 437.485
QB50P1 17 Jan 23:53:29 23:57:43 79° 104° (ESE) 00:01:55 145.935-145.965
ANTELSAT 17 Jan 23:55:33 23:57:49 14° 299° (WNW) 00:00:06 437.575/2403.000
POLYITAN 1 17 Jan 23:56:39 00:00:54 85° 101° (E) 00:05:09 437.675
QB50P2 17 Jan 23:57:49 00:02:03 87° 281° (W) 00:06:17 145.880/145.840
VELOX 1 18 Jan 00:02:52 00:06:54 33° 263° (W) 00:10:58 145.980
AO-85 18 Jan 00:04:21 00:07:38 26° 245° (WSW) 00:10:53 145.980
Cosmos 2504 18 Jan 00:06:00 00:08:39 12° 52° (NE) 00:11:17 435.465 / 435.565
50 SAT 18 Jan 00:13:22 00:16:23 25° 264° (W) 00:19:26 437.505
BEESAT 18 Jan 00:15:02 00:16:23 11° 56° (NE) 00:17:45 436.000
SWISSCUBE 18 Jan 00:15:36 00:17:37 13° 57° (ENE) 00:19:38 437.505
POPSAT HIP 1 18 Jan 00:20:13 00:24:20 55° 288° (WNW) 00:28:27 437.405
BEESAT 2 18 Jan 00:26:09 00:28:21 14° 34° (NNE) 00:30:32 435.950
DUCHIFAT 1 18 Jan 00:34:53 00:38:53 44° 289° (WNW) 00:42:52 145.980
AIST 1 18 Jan 00:34:58 00:38:46 30° 73° (ENE) 00:42:31
NANOSAT C BR1 18 Jan 00:38:58 00:42:50 37° 291° (WNW) 00:46:42 145.865
PCSat 18 Jan 00:39:35 00:44:15 30° 110° (ESE) 00:48:57 145.827
DX 1 18 Jan 00:45:21 00:48:54 24° 265° (W) 00:52:30 434.975-435.025
YUBILEINY 18 Jan 00:47:43 00:56:10 46° 72° (ENE) 01:04:31 435.215
UKube-1 18 Jan 00:50:05 00:53:50 28° 264° (W) 00:57:35 .
ISS 18 Jan 00:54:49 00:57:56 43° 340° (NNW) 01:01:05 145.825
SPROUT 18 Jan 00:55:58 00:58:04 13° 270° (W) 01:00:10 437.525
TISAT 1 18 Jan 00:55:58 01:00:09 75° 256° (WSW) 01:04:20 437.305
RS-15 18 Jan 00:59:52 01:11:51 80° 308° (NW) 01:24:20 29.354- 29.394
JAS-2 18 Jan 01:11:09 01:16:09 22° 302° (WNW) 01:21:29 435.910
ITUPSAT 1 18 Jan 01:12:31 01:16:49 35° 67° (ENE) 01:21:09 437.325
Gurwin Techsat 1B 18 Jan 01:17:22 01:21:52 27° 94° (E) 01:26:21 435.225
BUGSAT 1 18 Jan 01:21:37 01:25:19 36° 290° (WNW) 01:29:01 437.445
BEESAT 3 18 Jan 01:24:21 01:28:22 71° 53° (NE) 01:32:20 437.485
Oscar 19 18 Jan 01:26:11 01:31:19 58° 101° (E) 01:36:24 437.125/150
QB50P1 18 Jan 01:31:18 01:32:52 12° 301° (WNW) 01:34:28 145.935-145.965
POLYITAN 1 18 Jan 01:34:50 01:36:03 11° 301° (WNW) 01:37:16 437.675
QB50P2 18 Jan 01:36:42 01:37:09 10° 302° (WNW) 01:37:36 145.880/145.840
Cosmos 2491 18 Jan 01:38:21 01:46:21 43° 87° (E) 01:54:22 435.465 / 435.565
BEESAT 18 Jan 01:48:36 01:53:20 78° 74° (ENE) 01:58:08 436.000
SWISSCUBE 18 Jan 01:49:55 01:54:40 89° 68° (ENE) 01:59:28 437.505
M-CUBED/EXP-1 PRIME 18 Jan 01:52:38 01:56:01 22° 61° (ENE) 01:59:14 437.505
Cosmos 2504 18 Jan 01:56:32 02:04:01 61° 77° (ENE) 02:11:06 435.465 / 435.565
BEESAT 2 18 Jan 02:02:45 02:06:49 78° 54° (NE) 02:10:51 435.950
ITAMSAT 1 18 Jan 02:04:13 02:07:09 15° 89° (E) 02:10:04 435.822/435.867
MOZHAYETS 4 18 Jan 02:09:59 02:14:12 38° 69° (ENE) 02:18:28
AIST 1 18 Jan 02:12:44 02:16:15 25° 271° (W) 02:19:43
PCSat 18 Jan 02:22:15 02:27:28 46° 310° (NW) 02:32:42 145.827
AUBIESAT-1 18 Jan 02:31:01 02:35:04 41° 66° (ENE) 02:38:54 437.475
ISS 18 Jan 02:32:07 02:34:56 26° 0° (N) 02:37:45 145.825
STARS 18 Jan 02:37:39 02:39:42 13° 59° (ENE) 02:41:43 437.465
YUBILEINY 18 Jan 02:44:46 02:52:55 44° 273° (W) 03:01:01 435.215
CUBESAT XI-V 18 Jan 02:49:23 02:52:30 18° 61° (ENE) 02:55:36 437.345
ITUPSAT 1 18 Jan 02:50:35 02:54:41 28° 265° (W) 02:58:49 437.325
Gurwin Techsat 1B 18 Jan 02:56:57 03:01:59 44° 291° (WNW) 03:06:59 435.225
CUSAT 1 18 Jan 02:59:32 03:04:07 39° 88° (E) 03:09:57 437.405
BEESAT 3 18 Jan 03:03:42 03:05:26 12° 250° (WSW) 03:07:09 437.485
AO-7 18 Jan 03:05:03 03:12:46 39° 98° (E) 03:20:23 29.400- 29.500
Oscar 19 18 Jan 03:06:23 03:10:13 21° 299° (WNW) 03:14:02 437.125/150
KKS-1 18 Jan 03:10:06 03:14:26 54° 72° (ENE) 03:18:47 437.445
RS-15 18 Jan 03:15:37 03:26:37 37° 337° (NNW) 03:37:50 29.354- 29.394
PHONESAT 2.4 18 Jan 03:22:17 03:23:19 12° 161° (SSE) 03:24:21 2401.200-2431.200
DANDE 18 Jan 03:24:53 03:26:51 13° 79° (ENE) 03:29:04 436.750
M-CUBED/EXP-1 PRIME 18 Jan 03:26:02 03:30:16 42° 255° (WSW) 03:34:16 437.505
BEESAT 18 Jan 03:29:38 03:31:42 13° 272° (W) 03:33:46 436.000
SWISSCUBE 18 Jan 03:31:55 03:33:08 11° 273° (W) 03:34:20 437.505
Cosmos 2491 18 Jan 03:34:49 03:43:06 47° 288° (WNW) 03:51:28 435.465 / 435.565
AIST 2 18 Jan 03:35:39 03:39:04 23° 40° (NE) 03:42:29 435.215
ITAMSAT 1 18 Jan 03:41:59 03:47:11 76° 287° (WNW) 03:52:24 435.822/435.867
BEESAT 2 18 Jan 03:42:37 03:44:00 11° 251° (WSW) 03:45:21 435.950
MOZHAYETS 4 18 Jan 03:47:46 03:51:29 24° 267° (W) 03:55:14
Cosmos 2504 18 Jan 03:50:50 03:56:45 26° 278° (W) 04:02:29 435.465 / 435.565
BRITE-PL 18 Jan 03:57:58 04:01:03 16° 87° (E) 04:04:00 437.365/2234.400
AUBIESAT-1 18 Jan 04:06:19 04:09:34 21° 260° (W) 04:12:42 437.475
ISS 18 Jan 04:08:47 04:11:56 45° 21° (NNE) 04:15:04 145.825
PCSat 18 Jan 04:09:54 04:12:16 13° 332° (NNW) 04:14:40 145.827
STARS 18 Jan 04:11:04 04:15:26 77° 256° (WSW) 04:19:51 437.465
CUBESAT XI-V 18 Jan 04:24:45 04:29:23 61° 259° (W) 04:34:05 437.345
CUSAT 1 18 Jan 04:41:32 04:46:09 32° 295° (WNW) 04:51:57 437.405
KKS-1 18 Jan 04:48:29 04:51:19 17° 269° (W) 04:54:10 437.445
PHONESAT 2.4 18 Jan 04:55:06 04:57:02 23° 177° (S) 04:58:58 2401.200-2431.200
AO-7 18 Jan 04:57:41 05:05:45 54° 298° (WNW) 05:13:47 29.400- 29.500
DANDE 18 Jan 05:04:59 05:08:37 50° 287° (WNW) 05:13:30 436.750
STRAND 1 18 Jan 05:05:40 05:08:50 17° 58° (ENE) 05:12:00 437.568
DOVE 4 18 Jan 05:10:31 05:11:38 11° 87° (E) 05:12:45 437.250
AIST 2 18 Jan 05:13:41 05:17:50 53° 240° (WSW) 05:21:58 435.215
Cubesat XI-IV 18 Jan 05:15:46 05:19:06 16° 90° (E) 05:22:24 437.490
ITAMSAT 1 18 Jan 05:23:44 05:25:47 12° 306° (NW) 05:27:51 435.822/435.867
RS-15 18 Jan 05:33:01 05:43:45 32° 12° (NNE) 05:54:24 29.354- 29.394
NOAA 15 18 Jan 05:33:51 05:38:12 25° 94° (E) 05:42:31 137.62
GONETS M04 18 Jan 05:34:41 05:41:40 25° 61° (ENE) 05:48:36
BRITE-PL 18 Jan 05:35:04 05:40:06 62° 288° (WNW) 05:44:42 437.365/2234.400
Cosmos 2491 18 Jan 05:42:13 05:42:46 10° 314° (NW) 05:43:19 435.465 / 435.565
HORYU 2 18 Jan 05:45:04 05:49:32 80° 103° (ESE) 05:54:00 437.375
ISS 18 Jan 05:45:22 05:48:21 34° 219° (SW) 05:51:21 145.825
GOMX 1 18 Jan 05:52:56 05:57:32 84° 105° (ESE) 06:01:49 467.674
CUTE-I 18 Jan 06:12:05 06:17:18 52° 100° (E) 06:22:29 437.470
O/OREOS (USA 219) 18 Jan 06:14:09 06:17:58 28° 104° (ESE) 06:21:48 437.305
Cosmos 2499 18 Jan 06:17:11 06:24:05 44° 73° (ENE) 06:30:45 435.465 / 435.565
LilacSat-2 18 Jan 06:19:23 06:23:16 77° 102° (ESE) 06:27:08 437.200
